#timestamp,LO_Frequency,Hit,StdDev 
1691989215.8,286046991.5,N
1691989235.7,286046992.4,N
1691989255.5,286046990.5,N
1691989275.3,286046987.0,N
1691989295.2,286046987.6,N
1691989315.0,286046988.1,N
1691989315.9,286046988.1,N
1691989335.7,286046984.6,N
1691989355.6,286046984.4,N
1691989375.4,286046986.8,N
1691989395.3,286046988.1,N
1691989415.1,286046988.4,N
1691989416.0,286046988.4,N
1691989435.8,286046991.0,N
1691989455.7,286046992.9,N
1691989475.5,286046994.1,N
1691989495.3,286046992.9,N
1691989515.2,286046990.5,Y
1691989535.0,286047003.8,P
1691989535.9,286047003.8,N
1691989555.8,286047000.0,N
1691989575.6,286047000.4,N
1691989595.4,286047000.4,N
1691989615.3,286046999.7,N
1691989635.1,286047002.1,N
1691989655.8,286047001.5,N
1691989675.7,286047006.0,N
1691989695.5,286047001.8,N
1691989715.4,286047003.8,N
1691989735.2,286047001.0,N
1691989755.0,286047001.0,N
1691989755.9,286047001.0,N
1691989775.8,286047000.1,N
1691989795.6,286046998.7,N
1691989815.4,286046999.3,N
1691989835.3,286046998.5,N
1691989855.1,286046998.7,N
1691989875.8,286047001.6,N
1691989895.7,286046999.8,N
1691989915.5,286047000.4,N
1691989935.4,286046999.7,N
1691989955.2,286047002.8,N
1691989975.0,286047000.8,N
1691989975.9,286047000.8,N
1691989995.8,286046998.3,N
1691990015.6,286046998.8,N
1691990035.5,286046998.8,N
1691990055.3,286046999.9,N
1691990075.1,286046999.8,N
1691990095.9,286047001.0,N
1691990115.7,286046998.8,N
1691990135.5,286046998.7,N
1691990155.4,286046998.8,N
1691990175.2,286046996.8,N
1691990195.1,286046995.2,N
1691990196.0,286046995.2,N
1691990215.8,286046996.1,N
1691990235.6,286046994.6,N
1691990255.5,286046992.4,Y
1691990275.3,286046991.3,P
1691990295.1,286046991.3,N
1691990315.9,286046994.8,N
1691990335.7,286046996.4,N
1691990355.6,286046992.1,N
1691990375.4,286046990.6,Y
1691990395.2,286046999.6,P
1691990415.1,286046998.8,N
1691990416.0,286046998.8,N
1691990435.8,286046997.7,N
1691990455.6,286046997.1,N
1691990475.5,286046999.5,N
1691990495.3,286046999.6,N
1691990515.2,286046998.2,N
1691990535.9,286046997.2,N
1691990555.7,286046997.7,N
1691990575.6,286046995.6,N
1691990595.4,286046994.1,Y
1691990615.3,286046997.8,P
1691990635.1,286046999.6,P
1691990636.0,286046999.6,N
1691990655.8,286046999.2,N
1691990675.7,286046998.9,N
1691990695.5,286046999.3,N
1691990715.3,286046996.2,Y
1691990735.2,286046996.7,P
1691990755.0,286046999.1,N
1691990755.9,286046999.1,N
1691990775.8,286046997.5,N
1691990795.6,286046995.7,Y
1691990815.4,286046998.0,P
1691990835.3,286047000.3,N
1691990855.1,286047000.6,N
1691990875.8,286047001.7,N
1691990895.7,286047002.0,N
1691990915.5,286047001.3,N
1691990935.4,286047000.6,N
1691990955.2,286046996.9,N
1691990975.0,286046995.5,N
1691990975.9,286046995.5,N
1691990995.8,286046997.9,N
1691991015.6,286046995.4,N
1691991035.4,286046996.3,N
1691991055.3,286046994.4,N
1691991075.1,286046991.8,Y
1691991095.9,286046993.6,P
1691991115.8,286046992.5,P
1691991135.6,286046986.3,P
1691991155.4,286046990.8,N
1691991175.3,286046989.7,N
1691991195.1,286046987.8,Y
1691991215.8,286046994.7,P
1691991235.7,286046992.0,P
1691991255.5,286046991.8,P
1691991275.4,286046994.3,Y
1691991295.2,286047001.4,P
1691991315.0,286047005.6,N
1691991315.9,286047005.6,N
1691991335.8,286047004.7,N
1691991355.6,286047005.9,N
1691991375.4,286047003.8,N
1691991395.3,286047009.1,N
1691991415.1,286047008.6,N
1691991435.9,286047005.6,N
1691991455.7,286047000.2,N
1691991475.6,286047001.2,N
1691991495.4,286047002.1,N
1691991515.2,286047006.4,N
1691991535.1,286047011.9,N
1691991536.0,286047006.9,N
1691991555.8,286047010.8,N
1691991575.6,286047009.6,N
1691991625.5,286047006.0,E
1691991635.4,286047002.6,N
1691991655.3,286046996.6,P
1691991675.1,286047000.9,N
1691991695.8,286046996.5,N
1691991715.6,286046996.0,N
1691991735.4,286046992.3,N
1691991755.3,286046993.2,N
1691991775.1,286046991.6,N
1691991795.8,286046990.7,N
1691991815.7,286046992.2,N
1691991835.5,286046993.3,N
1691991855.4,286046999.2,N
1691991875.2,286047000.4,N
1691991895.0,286047003.6,N
1691991895.9,286047003.6,N
1691991915.8,286047006.9,N
1691991935.6,286047005.1,N
1691991955.4,286047005.4,N
1691991975.3,286047007.3,N
1691991995.1,286047004.8,N
1691992015.9,286047005.7,N
1691992035.7,286047004.9,N
1691992055.5,286047010.4,N
1691992075.4,286047007.7,N
1691992095.2,286047009.4,N
1691992115.0,286047013.3,N
1691992115.9,286047013.3,N
1691992135.8,286047009.4,N
1691992155.6,286047007.8,N
1691992175.5,286047007.2,N
1691992195.3,286047011.9,N
1691992215.1,286047001.9,N
1691992235.9,286047005.9,N
1691992255.7,286047002.7,N
1691992275.5,286047004.3,N
1691992295.4,286047003.5,N
1691992315.2,286047005.6,N
1691992335.1,286047004.3,N
1691992336.0,286047004.3,N
1691992355.8,286047003.7,N
1691992375.6,286047005.3,N
1691992395.5,286047004.1,N
1691992445.3,286046999.7,E
1691992455.2,286046999.9,N
1691992475.1,286047002.4,P
1691992476.0,286047002.4,N
1691992495.8,286047004.3,Y
1691992515.7,286047001.2,P
1691992535.5,286046996.8,P
1691992555.3,286046996.8,N
1691992575.2,286046995.7,N
1691992595.0,286046996.1,N
1691992595.9,286046996.1,N
1691992615.8,286046995.9,N
1691992635.6,286046995.8,N
1691992655.4,286046995.0,N
1691992675.3,286046992.1,Y
1691992695.1,286046994.7,P
1691992715.9,286046994.8,P
1691992735.7,286046987.0,P
1691992755.5,286046979.5,Y
1691992775.4,286046980.8,P
1691992795.2,286046977.5,P
